Date,TemperatureHighF,TemperatureAvgF,TemperatureLowF,DewpointHighF,DewpointAvgF,DewpointLowF,HumidityHigh,HumidityAvg,HumidityLow,PressureMaxIn,PressureMinIn,WindSpeedMaxMPH,WindSpeedAvgMPH,GustSpeedMaxMPH,PrecipitationSumIn
2012-1-1,51,38,29,41,31,19,89,76,56,0.00,40.00,14,10,17,0.00
2012-1-2,31,26,19,28,22,12,94,80,66,0.00,40.00,11,6,17,0.00
2012-1-3,24,19,14,21,12,9,82,73,59,0.00,40.00,11,4,15,0.00
2012-1-4,37,28,16,30,18,10,78,66,51,0.00,40.00,11,4,15,0.00
2012-1-5,45,35,25,32,21,-100,88,65,53,0.00,40.00,7,-55,15,0.00
2012-1-6,55,47,41,37,34,32,72,60,47,0.00,40.00,9,5,12,0.00
2012-1-7,47,42,33,36,32,28,84,69,51,0.00,40.00,9,3,12,0.00
2012-1-8,43,35,27,32,26,21,91,68,42,0.00,40.00,3,1,12,0.00
2012-1-9,43,37,29,30,26,23,78,63,47,0.00,40.00,6,2,8,0.00
2012-1-10,50,39,31,34,30,27,82,68,50,0.00,40.00,7,2,8,0.00
2012-1-11,44,38,32,41,34,28,97,84,68,0.00,40.00,9,3,12,13.59
2012-1-12,45,36,18,43,33,12,98,91,71,0.00,40.00,13,5,14,32.85
2012-1-13,22,18,16,19,14,12,89,81,71,0.00,40.00,14,10,21,15.83
2012-1-14,24,19,12,19,14,10,89,77,60,0.00,40.00,8,3,19,11.92
2012-1-15,26,18,9,16,12,7,89,74,56,0.00,40.00,9,3,10,0.00
2012-1-16,51,41,23,46,34,19,93,77,59,0.00,40.00,13,10,15,0.00
2012-1-17,59,46,30,52,41,23,95,85,71,0.00,40.00,17,8,24,3.38
2012-1-18,32,26,22,27,18,14,88,69,58,0.00,40.00,9,4,24,3.94
2012-1-19,32,24,10,28,19,5,90,78,69,0.00,40.00,11,6,14,6.22
2012-1-20,21,14,6,19,9,3,93,80,63,0.00,40.00,10,3,14,8.46
2012-1-21,24,20,17,23,17,10,93,83,68,0.00,40.00,8,4,12,3.38
2012-1-22,40,29,13,36,26,10,97,91,85,0.00,40.00,15,8,17,4.53
2012-1-23,58,43,34,52,38,27,97,84,75,0.00,40.00,21,11,26,2.83
2012-1-24,37,32,28,32,25,-100,86,76,68,0.00,40.00,11,-17,26,0.00
2012-1-25,37,31,25,34,25,-100,95,85,77,0.00,40.00,5,-30,10,4.49
2012-1-26,39,35,34,37,31,-100,98,94,93,0.00,40.00,6,-19,6,16.88
2012-1-27,41,34,32,36,27,-100,98,85,64,0.00,40.00,6,-39,8,11.34
2012-1-28,37,33,31,34,22,-100,95,71,42,0.00,40.00,13,-28,17,0.55
2012-1-29,38,31,25,32,21,-100,91,69,53,0.00,40.00,13,-16,17,0.00
2012-1-30,48,37,22,34,27,-100,90,66,53,0.00,40.00,11,-2,17,0.00
2012-1-31,58,49,42,46,33,-100,84,58,45,0.00,40.00,11,-14,17,0.00
2012-2-1,55,47,38,52,41,-100,93,83,68,0.00,40.00,10,-4,14,4.53
2012-2-2,46,36,31,34,26,-100,91,76,59,0.00,40.00,6,-41,10,0.00
2012-2-3,51,38,30,36,30,-100,93,77,53,0.00,40.00,5,-20,10,0.00
2012-2-4,39,34,33,36,31,-100,95,91,85,0.00,40.00,3,-12,8,7.36
2012-2-5,44,32,27,34,23,-100,97,80,59,0.00,40.00,2,-56,4,0.00
2012-2-6,48,38,30,34,29,-100,91,75,51,0.00,40.00,7,-13,10,0.00
2012-2-7,39,32,30,32,28,-100,90,83,77,0.00,40.00,6,-4,10,0.00
2012-2-8,35,30,25,27,23,18,89,74,47,0.00,40.00,6,3,8,0.00
2012-2-9,35,30,25,23,21,19,84,70,58,0.00,40.00,8,4,10,0.00
2012-2-10,36,31,27,32,26,19,91,80,67,0.00,40.00,8,5,12,12.44
2012-2-11,32,17,10,32,10,1,93,72,46,0.00,40.00,13,8,15,7.32
2012-2-12,30,24,17,21,16,10,75,67,59,0.00,40.00,9,6,15,0.00
2012-2-13,36,31,22,23,15,9,66,50,33,0.00,40.00,8,3,12,0.00
2012-2-14,39,33,29,34,30,23,97,88,69,0.00,40.00,7,3,12,16.97
2012-2-15,43,38,33,39,32,28,90,79,68,0.00,40.00,9,4,14,2.24
2012-2-16,49,43,35,46,38,30,94,85,76,0.00,40.00,8,3,14,9.06
2012-2-17,46,38,31,36,29,23,90,68,41,0.00,40.00,5,2,10,0.00
2012-2-18,42,37,25,32,26,19,82,64,44,0.00,40.00,10,4,15,0.00
2012-2-19,35,28,22,25,22,18,86,75,55,0.00,40.00,9,3,15,0.00
2012-2-20,40,30,18,25,23,18,93,73,53,0.00,40.00,8,3,12,0.00
2012-2-21,47,40,33,41,33,23,93,77,62,0.00,40.00,13,8,19,0.55
2012-2-22,55,43,36,39,34,30,93,74,40,0.00,40.00,10,4,19,0.00
2012-2-23,45,38,32,41,35,32,98,93,82,0.00,40.00,7,3,14,3.94
2012-2-24,44,38,32,41,33,27,97,84,68,0.00,40.00,16,8,19,4.49
2012-2-25,34,29,26,28,21,19,84,68,59,0.00,40.00,11,6,19,0.00
2012-2-26,46,33,20,25,21,18,90,62,36,0.00,40.00,12,5,17,0.00
2012-2-27,50,40,27,28,24,21,80,52,32,0.00,40.00,14,6,17,0.00
2012-2-28,47,35,22,32,25,21,90,68,42,0.00,40.00,10,3,17,0.00
2012-2-29,69,52,37,57,39,28,98,68,32,0.00,40.00,14,5,19,5.08
2012-3-1,45,37,32,34,26,-100,86,70,62,0.00,40.00,10,-31,19,0.00
2012-3-2,58,37,31,54,22,-100,94,74,72,0.00,40.00,17,-99,24,2.24
2012-3-3,40,31,30,34,16,-100,84,66,59,0.00,40.00,13,-77,24,1.14
2012-3-4,37,30,29,30,18,-100,85,71,56,0.00,40.00,8,-66,14,1.69
2012-3-5,34,26,24,30,12,-100,91,67,53,0.00,40.00,11,-82,14,7.35
2012-3-6,61,42,28,32,14,-100,75,43,31,0.00,40.00,16,-109,17,0.00
2012-3-7,67,52,47,46,24,-100,60,41,32,0.00,40.00,16,-68,24,0.00
2012-3-8,62,49,34,54,39,-100,93,73,55,0.00,40.00,17,-6,24,3.38
2012-3-9,41,35,27,28,22,16,75,58,38,0.00,40.00,13,6,19,0.00
2012-3-10,51,35,22,28,22,18,89,59,29,0.00,40.00,11,4,17,0.00
2012-3-11,64,52,38,36,30,23,54,43,31,0.00,40.00,6,3,10,0.00
2012-3-12,66,57,49,59,48,32,93,76,49,0.00,40.00,16,9,21,7.92
2012-3-13,71,62,24,59,47,18,89,63,36,0.00,40.00,12,4,21,0.00
2012-3-14,78,61,43,52,44,34,80,58,32,0.00,40.00,10,3,14,0.00
2012-3-15,78,66,59,64,56,48,91,74,60,0.00,40.00,13,6,19,2.83
2012-3-16,76,66,56,61,55,50,95,73,55,0.00,40.00,8,3,19,0.00
2012-3-17,76,65,53,61,55,50,97,75,44,0.00,40.00,11,3,14,0.00
2012-3-18,74,65,59,59,56,54,91,76,55,0.00,40.00,7,2,14,0.00
2012-3-19,83,68,56,64,57,54,94,73,41,0.00,40.00,8,2,10,0.00
2012-3-20,83,71,60,63,54,-100,86,61,32,0.00,40.00,7,2,10,0.00
2012-3-21,89,74,64,57,53,48,71,52,28,0.00,40.00,6,2,10,0.00
2012-3-22,86,71,60,59,52,-100,72,54,32,0.00,40.00,6,-6,15,0.00
2012-3-23,72,66,61,64,58,52,94,77,58,0.00,40.00,7,2,15,2.83
2012-3-24,67,60,55,63,53,50,97,82,60,0.00,40.00,6,2,10,2.28
2012-3-25,68,58,51,55,51,48,98,83,59,0.00,40.00,6,1,8,0.00
2012-3-26,60,44,34,50,32,21,91,65,41,0.00,40.00,8,4,12,0.00
2012-3-27,60,44,29,32,25,18,80,50,24,0.00,40.00,11,5,14,0.00
2012-3-28,72,63,49,57,41,32,69,48,24,0.00,40.00,14,7,17,0.00
2012-3-29,56,45,37,39,33,30,78,64,45,0.00,40.00,6,2,17,0.00
2012-3-30,74,47,37,61,38,30,93,74,49,0.00,40.00,11,6,14,0.00
2012-3-31,45,41,37,43,36,34,95,85,75,0.00,40.00,4,2,14,0.00
2012-4-1,70,53,39,54,43,34,90,73,54,0.00,40.00,9,4,12,0.00
2012-4-2,61,48,39,48,37,32,89,70,37,0.00,40.00,6,3,12,0.00
2012-4-3,71,52,40,59,43,32,93,73,55,0.00,40.00,7,3,12,3.39
2012-4-4,64,54,44,50,38,28,86,60,28,0.00,40.00,7,2,12,0.00
2012-4-5,53,44,36,36,32,28,84,65,49,0.00,40.00,6,2,10,0.00
2012-4-6,59,44,29,34,29,19,91,59,25,0.00,40.00,6,2,10,0.00
2012-4-7,65,49,31,32,26,18,82,46,18,0.00,40.00,4,0,8,0.00
2012-4-8,61,54,47,43,29,18,75,40,19,0.00,40.00,13,4,19,0.00
2012-4-9,64,53,46,41,30,19,76,46,19,0.00,40.00,14,4,19,0.00
2012-4-10,46,39,35,30,26,23,67,56,44,0.00,40.00,9,4,17,0.00
2012-4-11,51,40,29,30,27,21,80,60,38,0.00,40.00,6,2,14,0.00
2012-4-12,62,47,34,32,28,21,81,51,23,0.00,40.00,5,1,10,0.00
2012-4-13,67,52,36,32,29,25,78,43,22,0.00,40.00,8,2,12,0.00
2012-4-14,62,54,49,59,45,28,95,74,42,0.00,40.00,9,3,12,0.55
2012-4-15,80,67,57,59,53,-100,95,67,42,0.00,40.00,12,7,15,0.00
2012-4-16,72,65,51,63,50,37,86,61,42,0.00,40.00,16,9,19,0.00
2012-4-17,62,52,42,43,38,36,84,62,42,0.00,40.00,4,1,19,0.00
2012-4-18,67,54,37,37,34,30,88,52,27,0.00,40.00,8,2,10,0.00
2012-4-19,78,64,53,48,40,36,59,43,28,0.00,40.00,7,2,12,0.00
2012-4-20,76,64,48,54,46,41,93,56,34,0.00,40.00,12,5,17,4.53
2012-4-21,49,43,39,45,37,34,94,81,63,0.00,40.00,6,2,17,0.00
2012-4-22,49,42,34,37,32,-100,91,69,45,0.00,40.00,8,2,10,0.00
2012-4-23,58,47,37,28,21,9,60,38,15,0.00,40.00,16,8,22,0.00
2012-4-24,62,49,37,28,23,16,56,37,20,0.00,40.00,15,5,22,0.00
2012-4-25,63,51,38,50,35,25,86,56,25,0.00,40.00,10,3,21,0.55
2012-4-26,62,54,45,55,45,30,94,77,56,0.00,40.00,11,5,14,0.00
2012-4-27,55,44,32,32,27,23,73,52,29,0.00,40.00,7,1,14,0.00
2012-4-28,49,44,39,43,32,23,88,63,38,0.00,40.00,16,5,22,0.00
2012-4-29,65,50,36,39,30,-100,84,53,22,0.00,40.00,8,2,22,0.00
2012-4-30,82,64,48,63,45,21,97,55,29,0.00,40.00,9,5,12,1.14
2012-5-1,71,63,56,63,56,52,97,83,56,0.00,40.00,13,1,21,0.55
2012-5-2,84,72,59,66,62,55,97,74,51,0.00,40.00,9,3,21,0.00
2012-5-3,87,78,67,66,62,59,86,62,41,0.00,40.00,9,3,14,0.00
2012-5-4,83,73,62,72,63,57,93,76,53,0.00,40.00,5,2,14,0.00
2012-5-5,71,63,56,66,56,46,98,82,63,0.00,40.00,5,1,8,0.00
2012-5-6,76,61,49,50,42,-100,85,57,31,0.00,40.00,6,1,6,0.00
2012-5-7,81,64,54,68,53,36,97,72,44,0.00,40.00,8,2,12,0.00
2012-5-8,72,63,55,64,55,46,97,79,50,0.00,40.00,6,1,12,0.00
2012-5-9,67,58,53,52,44,-100,82,64,42,0.00,40.00,9,-5,15,0.00
2012-5-10,66,54,42,45,36,27,90,55,25,0.00,40.00,7,2,15,0.00
2012-5-11,74,60,43,39,35,32,76,45,23,0.00,40.00,4,1,12,0.00
2012-5-12,77,65,55,45,39,36,53,41,27,0.00,40.00,4,2,6,0.00
2012-5-13,76,65,55,54,46,-100,82,57,31,0.00,40.00,6,1,10,0.00
2012-5-14,79,66,51,57,51,45,95,64,33,0.00,40.00,4,0,10,0.00
2012-5-15,83,69,52,54,42,32,82,44,16,0.00,40.00,5,1,8,0.00
2012-5-16,71,65,53,54,37,28,71,38,22,0.00,40.00,4,1,8,0.00
2012-5-17,71,58,43,43,35,28,84,47,24,0.00,40.00,4,1,8,0.00
2012-5-18,82,64,46,45,35,30,64,38,16,0.00,40.00,6,1,10,0.00
2012-5-19,87,72,54,54,46,43,73,45,24,0.00,40.00,7,1,10,0.00
2012-5-20,88,76,62,54,47,-100,64,40,23,0.00,40.00,8,2,12,0.00
2012-5-21,82,72,63,61,54,48,76,58,38,0.00,40.00,9,2,12,0.00
2012-5-22,78,66,57,57,51,45,89,63,37,0.00,40.00,4,1,12,0.00
2012-5-23,82,69,54,57,52,48,93,60,34,0.00,40.00,6,1,8,0.00
2012-5-24,87,75,61,61,56,52,82,56,33,0.00,40.00,10,4,14,0.00
2012-5-25,92,80,70,66,58,48,66,50,34,0.00,40.00,7,3,14,0.00
2012-5-26,91,77,66,61,52,48,67,45,32,0.00,40.00,11,2,14,0.00
2012-5-27,95,81,68,64,58,-100,71,51,32,0.00,40.00,5,2,14,0.00
2012-5-28,95,84,72,70,61,54,78,50,27,0.00,40.00,8,3,10,0.00
2012-5-29,82,75,65,72,62,46,95,67,34,0.00,40.00,7,3,10,0.00
2012-5-30,79,70,58,64,48,39,82,51,27,0.00,40.00,5,2,10,0.00
2012-5-31,75,63,53,57,51,46,86,67,46,0.00,40.00,5,1,8,0.00
2012-6-1,65,57,51,64,52,45,98,85,69,0.00,40.00,7,3,10,1.14
2012-6-2,74,60,49,52,44,37,88,59,31,0.00,40.00,9,4,14,0.00
2012-6-3,80,67,56,55,45,-100,81,52,25,0.00,40.00,6,3,14,0.00
2012-6-4,76,66,58,54,47,39,73,53,32,0.00,40.00,4,0,10,0.00
2012-6-5,66,59,52,57,49,41,91,73,47,0.00,40.00,2,0,6,0.00
2012-6-6,76,63,49,54,46,39,91,59,31,0.00,40.00,4,0,8,0.00
2012-6-7,83,69,56,55,47,41,78,51,28,0.00,40.00,5,1,8,0.00
2012-6-8,85,72,57,55,44,32,76,43,16,0.00,40.00,4,1,8,0.00
2012-6-9,89,77,64,50,47,41,55,38,24,0.00,40.00,5,1,8,0.00
2012-6-10,90,79,64,57,50,-100,67,43,23,0.00,40.00,6,2,10,0.00
2012-6-11,80,73,67,70,63,52,95,74,47,0.00,40.00,7,3,10,0.00
2012-6-12,82,75,64,72,55,37,89,58,22,0.00,40.00,9,4,14,0.00
2012-6-13,76,65,56,52,44,34,88,53,28,0.00,40.00,4,0,14,0.00
2012-6-14,83,67,51,55,46,36,90,54,20,0.00,40.00,6,1,10,0.00
2012-6-15,90,75,57,57,52,45,82,50,25,0.00,40.00,9,2,12,0.00
2012-6-16,89,78,68,68,60,54,71,56,37,0.00,40.00,7,3,12,0.00
2012-6-17,85,76,67,72,63,-100,95,69,47,0.00,40.00,7,3,15,0.00
2012-6-18,91,80,67,68,64,59,91,65,40,0.00,40.00,8,3,15,0.00
2012-6-19,93,83,73,66,61,57,72,51,32,0.00,40.00,7,3,12,0.00
2012-6-20,94,83,71,66,60,54,75,49,29,0.00,40.00,6,2,12,0.00
2012-6-21,93,82,68,72,61,54,95,55,31,0.00,40.00,9,3,14,0.00
2012-6-22,84,75,63,72,60,50,95,66,32,0.00,40.00,4,1,14,0.00
2012-6-23,85,74,60,64,56,48,93,60,29,0.00,40.00,2,0,6,0.00
2012-6-24,91,79,66,61,54,48,68,47,27,0.00,40.00,6,2,8,0.00
2012-6-25,81,72,61,64,52,43,85,53,33,0.00,40.00,4,1,8,0.00
2012-6-26,82,67,52,54,45,39,88,52,25,0.00,40.00,3,0,6,0.00
2012-6-27,89,75,60,52,46,41,64,40,22,0.00,40.00,5,1,8,0.00
2012-6-28,104,86,71,70,59,48,59,42,28,0.00,40.00,8,3,12,0.00
2012-6-29,94,80,64,75,65,48,95,63,41,0.00,40.00,25,2,34,0.00
2012-6-30,91,79,63,72,65,59,91,67,44,0.00,40.00,7,2,34,0.00
2012-7-1,92,79,67,72,66,59,95,71,37,0.00,40.00,7,1,10,0.00
2012-7-2,92,79,65,70,63,57,91,63,34,0.00,40.00,2,1,10,0.00
2012-7-3,95,84,74,68,64,55,81,54,28,0.00,40.00,6,2,8,0.00
2012-7-4,100,87,75,73,67,63,78,57,33,0.00,40.00,7,2,14,0.00
2012-7-5,99,83,76,73,66,61,76,60,33,0.00,40.00,8,2,14,0.00
2012-7-6,103,88,73,77,67,59,85,58,27,0.00,40.00,2,1,10,0.00
2012-7-7,101,90,80,77,69,63,80,56,31,0.00,40.00,5,1,8,0.00
2012-7-8,86,78,71,75,61,52,82,59,34,0.00,40.00,4,0,8,0.00
2012-7-9,89,76,61,68,57,50,93,60,31,0.00,40.00,3,1,6,0.00
2012-7-10,85,75,64,66,59,48,91,63,38,0.00,40.00,4,1,10,0.00
2012-7-11,87,75,60,61,52,41,82,51,22,0.00,40.00,3,1,10,0.00
2012-7-12,92,78,64,64,55,48,80,50,25,0.00,40.00,7,1,8,0.00
2012-7-13,87,78,66,64,59,52,85,57,32,0.00,40.00,11,4,14,0.00
2012-7-14,89,76,63,72,64,59,93,71,38,0.00,40.00,7,1,14,0.00
2012-7-15,92,80,71,72,66,61,90,67,40,0.00,40.00,6,2,14,0.00
2012-7-16,96,83,67,70,62,55,90,56,28,0.00,40.00,4,1,14,0.00
2012-7-17,100,86,75,72,66,63,78,55,32,0.00,40.00,6,2,8,0.00
2012-7-18,96,81,68,73,70,64,97,73,41,0.00,40.00,12,1,19,0.00
2012-7-19,84,75,71,75,69,66,98,85,60,0.00,40.00,4,1,19,1.14
2012-7-20,75,70,64,73,64,57,98,83,60,0.00,40.00,2,0,8,0.00
2012-7-21,83,72,58,66,58,48,95,68,34,0.00,40.00,4,0,6,0.00
2012-7-22,91,79,68,70,62,59,80,59,40,0.00,40.00,4,1,6,0.00
2012-7-23,94,82,71,73,66,61,84,62,42,0.00,40.00,9,3,14,0.00
2012-7-24,86,79,70,73,69,64,95,76,60,0.00,40.00,6,2,14,0.00
2012-7-25,90,76,61,77,63,55,86,68,47,0.00,40.00,8,3,10,0.00
2012-7-26,90,83,78,73,69,64,84,65,47,0.00,40.00,6,3,10,0.00
2012-7-27,90,78,66,73,65,55,97,71,33,0.00,40.00,6,1,10,0.00
2012-7-28,79,71,65,68,64,61,97,82,58,0.00,40.00,3,1,10,0.00
2012-7-29,86,74,61,70,61,57,95,69,41,0.00,40.00,3,1,6,0.00
2012-7-30,88,77,65,66,61,55,85,61,37,0.00,40.00,4,1,4,0.00
2012-7-31,88,78,67,66,62,57,84,61,36,0.00,40.00,5,1,8,0.00
2012-8-1,88,78,67,68,61,55,89,62,36,0.00,40.00,3,0,8,0.00
2012-8-2,91,77,60,66,59,55,90,60,33,0.00,40.00,2,0,6,0.00
2012-8-3,93,81,67,66,62,55,80,56,31,0.00,40.00,7,2,10,0.00
2012-8-4,92,77,66,75,68,63,97,78,51,0.00,40.00,12,3,17,0.00
2012-8-5,83,76,68,73,66,55,95,76,46,0.00,40.00,9,3,17,0.00
2012-8-6,83,71,57,64,57,54,91,66,40,0.00,40.00,3,1,14,0.00
2012-8-7,88,74,58,66,58,50,94,64,31,0.00,40.00,4,1,6,0.00
2012-8-8,91,79,68,72,64,57,86,64,42,0.00,40.00,4,1,6,0.00
2012-8-9,80,73,66,70,66,61,95,82,58,0.00,40.00,6,1,8,0.00
2012-8-10,72,64,57,66,59,54,98,87,66,0.00,40.00,9,2,14,0.55
2012-8-11,74,63,57,63,55,-100,95,81,60,0.00,40.00,6,2,10,0.00
2012-8-12,79,68,58,63,56,50,94,70,42,0.00,40.00,3,1,8,0.00
2012-8-13,76,69,62,64,60,55,89,76,58,0.00,40.00,3,1,6,0.00
2012-8-14,76,68,63,66,62,61,98,85,62,0.00,40.00,5,1,10,0.00
2012-8-15,80,67,58,68,60,55,97,84,51,0.00,40.00,2,0,6,0.00
2012-8-16,83,72,63,63,60,57,90,70,46,0.00,40.00,7,2,12,0.00
2012-8-17,77,70,64,66,57,50,93,69,41,0.00,40.00,5,2,12,0.00
2012-8-18,77,65,53,57,51,45,91,65,34,0.00,40.00,2,0,8,0.00
2012-8-19,78,66,56,59,52,45,90,65,37,0.00,40.00,2,0,4,0.00
2012-8-20,78,65,52,57,53,48,94,69,37,0.00,40.00,3,1,6,0.00
2012-8-21,80,69,60,59,54,45,88,64,32,0.00,40.00,2,0,6,0.00
2012-8-22,83,69,55,61,52,48,89,61,31,0.00,40.00,2,0,4,0.00
2012-8-23,86,72,58,59,55,50,90,62,34,0.00,40.00,2,0,4,0.00
2012-8-24,88,75,60,64,56,50,84,58,29,0.00,40.00,5,1,8,0.00
2012-8-25,89,77,64,61,59,54,80,57,31,0.00,40.00,6,2,8,0.00
2012-8-26,89,77,65,64,60,54,80,59,32,0.00,40.00,6,3,8,0.00
2012-8-27,82,74,69,73,67,59,97,82,60,0.00,40.00,7,1,8,0.00
2012-8-28,80,71,60,64,58,55,91,70,45,0.00,40.00,6,1,8,0.00
2012-8-29,81,70,58,64,58,52,95,72,41,0.00,40.00,2,0,8,0.00
2012-8-30,86,72,58,64,54,50,84,60,32,0.00,40.00,4,1,6,0.00
2012-8-31,92,78,64,72,64,52,80,64,46,0.00,40.00,7,2,10,0.00
2012-9-1,83,76,70,75,70,66,98,86,67,0.00,40.00,4,1,12,0.00
2012-9-2,84,75,70,75,70,68,98,86,68,0.00,40.00,8,3,12,0.00
2012-9-3,84,76,69,73,68,66,97,81,63,0.00,40.00,9,3,12,0.00
2012-9-4,86,75,70,73,70,66,97,87,59,0.00,40.00,6,0,12,0.00
2012-9-5,85,74,64,72,66,63,98,81,54,0.00,40.00,4,1,8,0.00
2012-9-6,89,76,65,70,64,57,90,71,40,0.00,40.00,4,1,6,0.00
2012-9-7,83,72,62,70,63,57,95,77,59,0.00,40.00,7,1,15,3.39
2012-9-8,73,64,56,66,55,46,99,76,45,0.00,40.00,8,2,15,0.00
2012-9-9,72,62,52,57,52,48,93,73,44,0.00,40.00,2,0,12,0.00
2012-9-10,76,62,51,55,48,39,95,67,29,0.00,40.00,1,0,4,0.00
2012-9-11,80,66,53,54,48,45,90,58,33,0.00,40.00,7,2,10,0.00
2012-9-12,84,70,56,61,52,48,78,59,36,0.00,40.00,6,2,10,0.00
2012-9-13,84,72,63,63,56,50,80,60,34,0.00,40.00,3,1,8,0.00
2012-9-14,71,62,53,63,55,48,97,80,54,0.00,40.00,7,1,10,0.00
2012-9-15,74,60,48,54,46,39,94,66,31,0.00,40.00,3,0,10,0.00
2012-9-16,77,63,51,52,45,39,78,56,28,0.00,40.00,5,1,6,0.00
2012-9-17,78,66,53,66,52,43,91,64,41,0.00,40.00,6,2,8,0.00
2012-9-18,69,61,47,64,51,34,97,74,45,0.00,40.00,11,4,14,0.55
2012-9-19,69,55,41,41,36,32,88,56,27,0.00,40.00,6,2,14,0.00
2012-9-20,73,62,50,57,44,37,75,56,40,0.00,40.00,9,4,12,0.00
2012-9-21,70,59,49,55,46,34,98,70,29,0.00,40.00,7,1,12,0.00
2012-9-22,64,53,46,54,46,39,98,83,59,0.00,40.00,9,2,14,0.00
2012-9-23,62,50,41,45,38,-100,91,69,37,0.00,40.00,6,2,14,0.00
2012-9-24,67,52,37,41,35,30,93,59,27,0.00,40.00,7,2,10,0.00
2012-9-25,68,58,50,63,47,36,93,72,50,0.00,40.00,11,4,14,0.00
2012-9-26,68,64,60,66,61,57,97,93,89,0.00,40.00,4,2,14,0.00
2012-9-27,65,59,49,63,54,46,97,87,60,0.00,40.00,3,0,6,0.00
2012-9-28,69,57,47,54,47,43,97,75,44,0.00,40.00,7,1,8,0.00
2012-9-29,71,58,46,50,45,37,93,68,33,0.00,40.00,5,1,8,0.00
2012-9-30,67,56,46,50,44,39,97,69,38,0.00,40.00,1,0,6,0.00
2012-10-1,68,55,42,55,44,39,95,72,38,0.00,40.00,8,2,12,0.00
2012-10-2,65,58,53,63,55,50,98,94,85,0.00,40.00,1,0,12,0.00
2012-10-3,67,62,58,63,57,52,99,86,66,0.00,40.00,6,2,8,0.00
2012-10-4,78,65,55,55,51,48,85,65,38,0.00,40.00,6,2,8,0.00
2012-10-5,66,55,44,57,50,41,98,87,67,0.00,40.00,7,2,10,0.00
2012-10-6,55,45,37,45,36,32,98,74,46,0.00,40.00,6,2,8,0.00
2012-10-7,52,45,39,41,34,30,90,68,47,0.00,40.00,4,1,8,0.00
2012-10-8,56,44,33,36,31,27,89,63,33,0.00,40.00,4,1,8,0.00
2012-10-9,62,50,38,41,36,32,91,64,36,0.00,40.00,9,4,15,0.00
2012-10-10,55,48,38,46,35,28,91,65,42,0.00,40.00,8,4,15,0.00
2012-10-11,61,47,35,34,31,28,80,56,31,0.00,40.00,7,3,12,0.00
2012-10-12,55,48,37,39,31,23,76,55,28,0.00,40.00,4,1,12,0.00
2012-10-13,71,52,36,61,42,30,90,70,44,0.00,40.00,11,6,14,0.00
2012-10-14,71,66,57,61,57,50,82,75,62,0.00,40.00,22,11,30,0.00
2012-10-15,58,52,48,52,44,37,95,79,62,0.00,40.00,11,4,30,0.00
2012-10-16,62,50,36,39,36,32,94,65,37,0.00,40.00,7,2,12,0.00
2012-10-17,74,62,53,57,46,39,93,59,34,0.00,40.00,13,6,17,0.00
2012-10-18,64,58,49,54,41,28,93,57,29,0.00,40.00,15,7,21,0.00
2012-10-19,57,50,45,46,40,34,94,72,54,0.00,40.00,8,4,21,0.00
2012-10-20,55,49,45,46,40,37,91,76,58,0.00,40.00,7,3,12,0.00
2012-10-21,63,52,40,46,41,36,94,70,44,0.00,40.00,6,1,8,0.00
2012-10-22,76,62,49,55,49,43,85,65,41,0.00,40.00,9,3,12,0.00
2012-10-23,69,64,59,63,55,48,97,77,56,0.00,40.00,9,3,14,0.00
2012-10-24,79,68,58,63,54,50,95,66,46,0.00,40.00,9,3,14,0.00
2012-10-25,77,66,56,55,51,48,80,62,40,0.00,40.00,13,4,17,0.00
2012-10-26,69,52,43,57,45,39,95,82,59,0.00,40.00,8,4,17,0.00
2012-10-27,54,46,41,43,37,32,93,73,50,0.00,40.00,7,4,10,0.00
2012-10-28,47,43,39,37,32,28,77,66,53,0.00,40.00,10,5,14,0.00
2012-10-29,45,41,36,36,32,25,84,68,51,0.00,40.00,20,11,26,0.00
2012-10-30,43,37,32,39,34,27,97,90,56,0.00,40.00,20,10,26,0.00
2012-10-31,45,39,36,41,36,34,95,91,85,0.00,40.00,7,3,15,0.00
2012-11-1,50,42,36,41,34,28,97,75,51,0.00,40.00,6,3,10,0.00
2012-11-2,45,40,35,32,30,27,76,66,54,0.00,40.00,8,2,12,0.00
2012-11-3,45,39,32,34,30,28,86,69,55,0.00,40.00,3,1,12,0.00
2012-11-4,37,34,30,32,29,27,93,79,69,0.00,40.00,4,1,4,0.00
2012-11-5,46,34,24,30,27,23,94,76,47,0.00,40.00,3,1,4,0.00
2012-11-6,47,40,32,32,30,28,85,67,49,0.00,40.00,4,1,6,0.00
2012-11-7,50,38,28,39,32,27,97,81,53,0.00,40.00,6,1,8,0.00
2012-11-8,51,39,26,37,31,25,97,77,49,0.00,40.00,2,0,8,0.00
2012-11-9,58,45,31,46,35,30,91,71,45,0.00,40.00,7,3,10,0.00
2012-11-10,68,58,49,48,42,37,80,59,46,0.00,40.00,10,6,14,0.00
2012-11-11,68,60,50,45,38,32,66,47,33,0.00,40.00,19,9,22,0.00
2012-11-12,61,45,32,55,38,25,95,77,44,0.00,40.00,17,8,22,0.00
2012-11-13,40,33,29,32,26,23,86,72,56,0.00,40.00,4,1,22,0.00
2012-11-14,41,33,25,32,26,-100,94,77,55,0.00,40.00,7,1,10,0.00
2012-11-15,44,35,24,34,29,23,97,78,55,0.00,40.00,2,0,10,0.00
2012-11-16,52,38,29,34,31,28,97,75,45,0.00,40.00,2,0,4,0.00
2012-11-17,55,41,29,36,32,27,94,70,41,0.00,40.00,4,1,6,0.00
2012-11-18,59,42,30,34,31,28,90,67,33,0.00,40.00,5,1,8,0.00
2012-11-19,62,46,33,39,31,27,80,59,27,0.00,40.00,2,1,8,0.00
2012-11-20,60,50,43,39,36,32,72,61,41,0.00,40.00,2,0,4,0.00
2012-11-21,63,49,36,43,38,32,91,70,41,0.00,40.00,2,0,4,0.00
2012-11-22,62,51,39,45,39,34,88,67,45,0.00,40.00,11,4,14,0.00
2012-11-23,59,40,30,52,32,21,91,72,55,0.00,40.00,14,8,15,0.00
2012-11-24,34,30,29,28,24,21,80,73,68,0.00,40.00,7,4,15,0.00
2012-11-25,44,35,29,32,25,21,77,64,47,0.00,40.00,9,4,14,0.00
2012-11-26,42,36,29,32,28,23,89,72,60,0.00,40.00,6,1,14,0.00
2012-11-27,38,31,26,30,22,19,89,68,47,0.00,40.00,4,2,8,0.00
2012-11-28,43,33,25,28,24,19,80,66,50,0.00,40.00,6,2,8,0.00
2012-11-29,48,38,29,30,27,25,80,64,45,0.00,40.00,7,3,12,0.00
2012-11-30,54,44,36,36,31,28,80,60,40,0.00,40.00,7,2,12,0.00
2012-12-1,61,49,34,48,40,32,91,74,58,0.00,40.00,12,4,17,0.00
2012-12-2,61,56,52,57,50,43,95,83,63,0.00,40.00,12,6,17,3.98
2012-12-3,66,60,54,61,55,52,99,90,78,0.00,40.00,11,4,15,0.00
2012-12-4,64,53,43,55,46,37,95,81,69,0.00,40.00,12,4,14,5.08
2012-12-5,43,34,27,37,27,23,86,73,55,0.00,40.00,8,2,14,0.00
2012-12-6,45,34,26,37,25,-100,82,73,59,0.00,40.00,12,4,14,0.00
2012-12-7,53,46,41,48,42,36,95,91,80,0.00,40.00,6,1,14,9.60
2012-12-8,49,43,36,46,41,32,98,94,86,0.00,40.00,6,2,8,2.83
2012-12-9,54,42,35,52,38,32,98,90,84,0.00,40.00,11,5,14,2.28
2012-12-10,51,38,29,50,35,27,98,89,75,0.00,40.00,7,3,14,11.89
2012-12-11,36,32,28,34,26,21,94,78,60,0.00,40.00,6,2,10,4.56
2012-12-12,43,33,25,30,25,21,86,71,47,0.00,40.00,4,1,8,0.00
2012-12-13,45,36,28,30,27,23,85,68,42,0.00,40.00,7,3,10,0.00
2012-12-14,38,36,34,30,27,25,71,67,60,0.00,40.00,7,3,10,0.00